GEFSGL_con_cape1000_318.txt.gz
Probability
55 52 52 42 42 45 42 42 45 48 48 52 48 42 45 42 48 58 52 52 45 39 42 35 42 39 26 23 19 16 19 26 29 26 29 26 39 32 23 29 26 26 19
48 45 48 52 48 48 39 45 48 45 48 35 42 45 39 29 39 42 39 39 39 42 35 32 35 29 39 29 26 19 29 35 35 35 39 39 35 32 42 35 16 13 19
45 42 42 45 45 48 45 48 52 48 45 35 39 45 42 32 39 39 39 29 32 32 32 32 32 35 35 29 29 19 23 23 32 32 35 42 32 29 32 26 10 23 13
42 42 42 42 42 42 48 45 45 45 42 39 32 35 32 32 35 39 35 35 32 29 32 32 32 32 29 26 32 26 26 29 29 26 26 19 32 26 23 23 23 23 13
45 39 42 42 45 42 42 42 39 39 39 35 32 32 26 26 26 39 35 32 35 35 32 29 29 29 29 26 19 26 32 32 26 26 26 23 16 29 23 23 19 26 23
45 45 39 45 45 45 42 42 39 39 39 42 35 26 23 19 10 10 19 29 32 32 29 29 29 26 10 3 0 3 10 19 35 35 26 26 29 23 29 19 16 13 6
45 45 45 42 42 39 35 42 39 39 39 39 39 35 32 23 6 6 3 19 26 23 26 32 26 19 13 26 10 0 0 0 3 19 29 29 29 26 32 19 32 23 19
45 42 42 45 45 35 29 32 39 42 42 42 42 35 35 29 6 3 0 10 23 26 26 29 35 29 26 29 29 26 26 26 3 6 23 29 23 19 26 23 26 26 23
39 35 32 35 39 39 35 32 32 39 39 35 39 39 35 35 10 3 0 23 23 23 23 23 26 29 19 6 19 39 29 26 3 3 0 6 6 3 6 16 19 10 6
32 32 32 26 29 32 32 39 35 35 35 35 32 35 32 35 10 0 0 19 29 19 29 29 10 10 10 3 19 29 29 26 19 6 3 3 3 3 0 6 13 10 6
29 29 29 32 32 29 35 35 35 32 35 35 35 32 32 35 16 0 0 19 19 23 19 26 19 6 0 0 0 19 19 13 16 16 16 10 10 13 6 6 16 13 10
26 29 29 32 26 29 32 32 35 29 29 32 39 32 29 26 19 10 0 0 6 26 19 10 10 3 0 0 0 3 3 0 3 10 10 13 10 10 13 10 16 16 16
23 23 29 32 29 29 32 32 32 35 32 29 26 23 29 26 19 6 0 0 0 13 26 10 3 3 0 0 0 0 0 6 13 13 16 10 13 13 6 19 16 13 13
23 26 29 29 29 29 35 29 29 26 26 26 23 26 23 16 23 19 19 10 0 0 10 3 0 0 0 0 0 0 3 10 16 16 16 13 10 13 10 13 10 10 10
29 26 29 26 29 32 26 29 23 32 23 19 23 26 19 16 16 13 16 23 13 16 10 10 10 10 10 13 16 16 16 19 10 13 13 13 13 16 16 16 16 10 3
23 26 19 23 23 16 19 16 16 16 13 13 13 13 16 13 6 0 0 0 0 0 0 13 13 16 13 16 16 19 16 16 16 13 13 6 3 3 10 10 10 13 6
23 23 13 16 13 16 16 16 16 13 10 3 0 0 0 0 0 0 0 0 0 0 0 6 6 10 6 10 16 16 19 16 19 13 13 10 13 6 6 6 6 3 3
16 16 19 19 13 13 13 13 13 13 13 13 6 0 0 0 0 0 0 0 0 0 0 6 6 10 13 13 13 19 19 23 16 16 13 13 10 10 6 3 3 0 0
13 13 16 13 13 16 6 13 10 10 10 10 10 6 0 0 0 0 0 0 6 6 6 6 6 10 16 13 16 19 23 23 19 13 13 16 10 3 3 3 0 0 0
10 6 10 10 6 10 10 13 13 10 10 10 10 10 6 3 3 3 3 3 3 3 3 3 10 13 13 13 10 19 16 16 16 13 6 13 16 10 3 3 3 0 0
10 10 6 10 10 3 3 6 6 6 10 6 10 10 6 10 10 10 10 6 6 6 10 10 10 6 6 6 6 6 6 16 13 10 6 13 16 6 6 0 3 0 0
10 6 6 6 3 6 6 6 6 6 10 6 10 6 3 6 10 6 6 6 6 10 10 10 10 6 6 6 6 6 6 6 6 10 10 10 3 6 3 6 3 3 3
10 6 10 6 3 3 3 3 10 10 6 3 0 3 6 6 6 6 6 6 10 3 6 6 6 6 6 6 6 6 6 6 6 6 10 10 3 0 3 3 3 0 3
3 3 3 3 6 6 3 6 6 3 3 3 0 0 3 6 6 6 3 3 3 3 3 6 6 6 6 6 6 6 6 6 6 10 10 10 6 6 6 6 3 0 0
3 3 3 3 3 3 6 6 0 0 3 3 0 0 3 3 3 3 3 3 3 3 3 3 6 6 3 3 3 3 0 0 0 0 6 6 6 6 3 3 3 0 0
3 3 3 3 3 3 0 0 0 0 0 3 3 6 3 0 0 3 3 3 3 3 3 3 3 3 3 3 3 0 0 0 0 0 3 3 3 3 3 3 3 0 0

GEFSGL_con_cape1000_324.txt.gz
Probability
61 65 65 61 58 52 55 48 55 52 55 48 48 42 39 52 52 58 48 52 45 39 35 29 35 42 26 35 35 39 42 39 23 19 19 32 35 29 10 23 26 19 6
58 55 55 52 48 48 45 42 42 45 48 52 48 39 39 39 45 48 48 45 42 39 35 32 32 26 29 32 35 35 29 29 26 19 23 32 32 32 16 26 23 13 13
55 55 58 52 45 45 45 42 48 45 45 48 42 35 35 35 35 35 39 35 35 39 39 39 29 32 32 35 32 32 29 19 32 32 26 35 35 26 26 23 19 16 13
48 48 55 52 48 45 45 42 48 52 48 48 45 39 39 39 32 29 29 26 32 32 35 42 35 32 29 29 23 29 35 26 29 29 29 29 32 29 23 13 10 16 6
52 52 52 48 45 45 42 45 39 45 42 48 42 42 39 35 32 29 32 26 29 26 26 26 29 26 23 23 16 26 23 23 23 26 26 29 29 23 23 16 3 10 6
55 48 48 45 42 45 45 45 42 45 45 48 45 42 39 29 19 13 19 26 29 29 29 26 23 16 13 10 3 3 10 6 10 16 19 26 29 26 26 16 6 10 10
52 48 45 48 45 42 39 42 45 52 55 52 52 45 39 26 19 10 6 19 32 26 26 26 26 16 13 13 10 0 3 0 3 6 13 23 23 26 26 19 6 10 10
48 52 48 48 39 48 42 42 48 52 55 52 48 45 45 26 16 6 3 6 29 29 26 29 26 23 16 16 16 19 16 10 0 0 3 10 13 26 29 16 19 13 16
42 48 45 39 39 42 48 48 55 58 48 45 39 45 45 29 13 3 3 16 35 39 26 23 19 26 16 6 10 19 16 13 10 0 0 3 0 0 6 19 13 3 6
39 48 45 52 45 45 45 48 52 55 45 45 42 45 42 42 13 3 3 23 29 29 32 29 16 16 10 6 6 19 19 23 19 6 6 0 3 3 0 0 6 3 6
35 39 42 48 48 48 52 52 52 52 48 52 45 45 48 48 23 3 3 16 26 26 29 29 29 13 0 0 3 10 16 10 29 26 19 13 13 13 13 6 10 6 6
35 45 48 45 32 29 42 48 48 48 42 45 45 42 35 39 26 10 3 0 10 16 26 26 16 0 0 0 0 0 0 0 6 16 16 16 19 16 16 13 13 6 6
39 42 48 48 45 39 48 45 42 42 32 32 32 29 32 35 23 13 3 3 0 3 13 6 6 0 0 0 0 0 0 0 3 10 16 16 19 16 19 10 19 13 6
42 42 48 42 45 42 42 35 26 26 23 26 23 26 23 23 19 19 10 6 0 0 3 6 0 0 0 0 0 3 0 3 6 10 13 16 23 19 19 16 10 10 6
42 39 35 29 26 39 35 29 26 19 19 19 23 23 23 23 19 10 16 16 13 10 10 10 10 13 6 10 10 19 16 13 10 13 19 19 19 16 16 16 16 13 6
35 32 26 32 26 26 23 19 16 16 13 13 16 16 23 13 10 3 3 0 0 0 3 13 13 13 16 16 16 19 23 23 26 19 16 13 16 13 16 13 13 13 10
23 23 19 19 26 26 26 19 19 13 13 6 6 6 6 3 3 3 3 3 0 0 0 10 13 13 13 16 13 10 10 19 26 23 16 16 13 10 3 3 3 6 3
23 10 13 23 23 19 16 16 19 13 16 13 3 0 0 0 0 0 0 0 0 0 0 6 13 10 13 13 13 16 13 10 16 13 13 13 16 16 13 6 3 3 0
16 13 13 13 19 16 16 16 13 13 13 10 6 3 0 0 0 0 0 0 13 13 10 6 10 10 13 13 16 16 16 13 13 13 13 13 13 13 13 13 6 3 0
16 6 10 10 10 13 13 10 10 10 13 6 6 6 0 3 3 0 0 0 3 3 6 10 6 6 6 10 10 10 10 13 16 13 6 13 13 13 10 10 10 6 3
10 10 6 10 10 13 13 6 6 6 6 6 6 3 0 3 6 3 3 3 3 6 6 6 6 6 6 6 3 3 3 3 6 6 6 6 6 6 6 6 6 6 6
10 10 10 10 10 10 10 10 6 6 6 6 6 0 0 3 3 3 3 3 3 6 6 6 6 6 6 6 3 3 3 3 3 3 3 3 6 6 6 6 6 3 3
10 6 10 10 10 6 6 6 6 6 6 6 6 0 0 3 0 3 3 3 3 3 3 6 6 3 3 3 3 3 3 3 3 3 3 3 3 3 3 3 3 6 6
3 3 3 3 6 6 6 6 6 6 6 3 3 0 0 0 0 0 3 3 0 0 0 3 3 3 3 0 0 0 3 3 3 3 3 3 3 3 3 3 3 3 3
3 3 3 3 3 3 3 3 3 3 0 0 0 0 0 0 0 3 0 0 3 0 3 3 0 0 0 0 0 0 0 0 0 3 3 3 3 3 3 3 3 0 0
3 3 3 3 3 3 3 3 0 0 0 0 0 0 0 0 0 0 0 0 0 0 0 0 0 3 3 0 0 0 0 0 0 0 0 3 3 3 3 3 0 0 0

GEFSGL_con_cape1000_330.txt.gz
Probability
26 19 19 19 16 19 16 19 19 19 23 19 19 19 13 13 13 13 10 10 6 3 6 6 6 6 6 3 3 3 3 0 0 0 0 0 0 0 0 0 0 0 0
23 23 19 19 16 16 16 19 19 19 19 19 19 19 13 13 10 10 13 13 10 10 10 6 6 6 3 3 3 3 3 0 0 0 0 0 0 0 0 0 0 0 0
19 19 16 19 16 16 19 19 19 19 19 19 19 19 19 19 13 13 10 13 13 13 6 10 10 10 6 3 3 3 3 3 0 0 0 0 0 0 0 0 0 0 3
19 26 29 26 23 23 23 19 19 16 19 19 16 16 16 16 19 13 10 10 13 13 10 6 6 3 6 6 6 6 3 3 0 0 0 0 0 0 0 0 0 3 3
23 26 26 26 19 23 19 23 19 23 23 19 19 19 19 16 16 16 13 13 13 13 10 10 6 6 3 3 6 6 6 3 3 0 0 0 0 3 0 0 3 3 3
26 23 26 23 19 26 23 19 23 23 23 23 19 19 19 19 16 13 10 10 13 13 13 6 6 6 6 6 6 6 6 3 0 0 0 0 0 0 3 6 3 3 3
23 26 26 29 29 26 26 19 23 19 19 23 23 23 19 19 19 13 10 6 13 13 10 10 6 13 6 6 3 3 0 0 0 0 0 0 0 0 3 3 0 0 0
23 26 23 26 29 29 23 26 26 23 23 19 23 23 23 19 13 10 6 6 6 13 10 13 6 6 10 6 3 3 3 3 3 0 0 0 0 0 0 3 0 0 0
16 19 23 26 26 29 29 26 26 26 26 29 26 26 26 23 16 10 3 10 10 13 10 10 6 6 6 3 3 3 3 3 3 3 0 3 0 0 0 0 0 0 0
13 16 16 23 26 26 26 26 23 26 29 29 32 29 23 23 19 13 3 10 10 10 10 10 6 6 6 3 3 3 3 3 3 3 3 3 0 0 0 0 0 0 0
10 6 10 13 16 19 23 23 19 19 26 26 26 26 26 23 19 13 3 10 10 10 10 10 3 3 3 0 0 0 3 0 0 0 0 3 6 6 6 6 0 0 0
10 6 6 10 16 23 23 23 19 19 19 19 23 26 23 23 19 19 3 3 10 13 10 10 6 3 3 0 0 0 0 0 0 0 3 3 6 6 6 6 6 6 3
3 6 6 16 16 16 19 23 19 19 19 19 19 23 23 23 23 19 6 3 3 0 13 10 3 0 0 0 3 0 0 0 0 3 3 3 3 6 3 6 6 3 3
3 6 6 13 13 13 13 16 16 23 23 19 19 23 23 23 19 16 13 3 3 3 0 0 3 0 0 0 0 0 0 3 3 3 3 3 3 6 6 6 6 3 3
6 10 6 10 10 13 13 13 16 19 19 19 19 19 19 19 16 13 13 6 0 0 0 0 0 0 0 0 3 3 3 0 0 0 3 3 3 3 3 3 3 3 3
6 3 3 6 6 6 10 10 10 6 6 10 13 13 16 13 16 10 3 3 0 0 0 0 0 0 0 0 0 0 0 0 0 0 0 0 3 3 3 3 3 3 3
3 3 3 6 6 6 6 10 10 6 0 0 0 0 6 3 3 0 0 0 0 0 0 0 3 3 3 3 0 0 0 0 0 0 0 0 3 3 3 3 3 3 3
3 3 3 3 6 6 6 6 10 10 10 3 0 0 0 0 0 0 0 0 0 0 0 3 3 3 3 3 3 0 0 0 0 0 0 3 3 3 3 3 3 3 3
3 3 3 3 3 3 3 6 6 10 10 10 3 0 0 0 0 0 0 0 3 3 3 3 6 6 3 3 3 3 3 0 0 0 0 3 3 3 3 3 3 3 0
3 3 3 3 3 3 3 3 3 6 10 10 6 0 0 3 0 0 0 0 0 3 3 3 3 3 3 3 3 3 3 3 3 0 0 0 0 0 0 0 0 0 0
3 3 3 3 3 3 3 3 3 3 3 6 6 3 0 3 3 3 0 0 0 0 0 3 3 3 3 3 3 3 3 3 0 0 0 0 0 0 0 0 0 0 0
3 3 3 3 3 3 3 3 3 3 3 3 3 3 0 0 3 0 0 0 3 3 3 3 3 3 3 3 3 3 3 0 0 0 0 0 0 0 0 0 0 0 0
3 3 3 3 3 3 3 3 3 3 3 3 0 0 0 0 0 0 0 0 0 0 0 0 0 0 0 0 0 0 0 0 0 0 0 0 0 0 0 0 0 0 0
6 3 3 3 3 3 3 0 0 0 0 0 0 0 0 0 0 0 0 0 0 0 0 0 0 0 0 0 0 0 0 0 0 0 0 0 0 0 0 0 0 0 0
3 3 3 3 0 0 0 0 0 0 0 0 0 0 0 0 0 0 0 0 0 0 0 0 0 0 0 0 0 0 0 0 0 0 0 0 0 0 0 0 0 0 0
0 0 0 0 0 0 0 0 0 0 0 0 0 0 0 0 0 0 0 0 0 0 0 0 0 0 0 0 0 0 0 0 0 0 0 0 0 0 0 0 0 0 0

GEFSGL_con_cape1000_336.txt.gz
Probability
10 10 6 6 6 10 10 10 10 10 10 10 13 10 10 6 6 10 6 6 3 6 6 3 3 0 0 3 0 0 0 0 0 3 3 0 0 0 0 0 0 0 0
6 6 6 6 10 13 13 13 13 13 13 13 13 10 10 10 6 6 10 10 10 13 13 10 6 3 0 3 3 3 0 0 0 0 0 0 0 0 0 0 0 0 0
3 6 10 10 13 13 13 13 13 13 13 16 16 13 13 10 6 10 6 10 10 10 13 10 3 3 3 3 3 3 3 0 3 3 0 0 0 0 0 0 0 0 0
3 6 10 10 10 13 13 13 13 16 16 16 16 16 16 16 16 6 10 10 10 6 10 6 3 3 3 3 3 3 3 3 3 0 3 0 0 0 0 0 0 0 0
6 10 13 13 13 16 16 16 16 19 19 19 19 16 13 16 16 16 13 13 10 10 10 6 6 3 3 3 3 3 3 3 3 3 3 3 3 0 0 0 0 0 0
13 13 13 13 19 16 16 16 16 13 16 16 16 19 19 19 16 10 6 16 10 10 10 10 10 3 3 0 0 0 0 3 3 3 3 3 3 3 3 0 0 0 3
16 16 13 13 16 16 13 13 13 13 13 13 13 13 19 19 10 6 3 10 13 10 10 10 10 10 6 6 3 0 0 0 0 6 6 6 3 3 6 3 3 3 3
10 13 13 13 16 16 16 13 13 13 13 13 13 16 16 16 10 6 0 6 6 10 10 10 10 10 10 10 6 6 3 3 3 0 6 6 3 3 3 6 3 3 3
3 3 6 16 13 13 13 13 13 13 13 16 16 16 16 16 10 6 0 6 10 10 10 10 10 10 10 0 3 6 6 10 3 0 0 0 0 0 0 3 3 3 3
0 0 3 10 13 16 16 13 16 16 16 16 16 16 16 16 16 10 0 13 13 10 10 10 10 10 10 0 0 6 6 6 10 3 3 3 0 0 0 0 3 3 3
0 0 0 6 10 10 13 16 16 16 19 19 19 19 16 16 16 6 0 10 16 16 16 13 13 10 3 0 0 3 6 6 6 6 3 3 3 3 3 3 3 3 3
0 0 3 6 6 6 6 6 10 16 19 16 19 19 16 16 13 10 0 3 6 16 19 19 16 6 3 0 0 0 0 0 0 3 3 3 3 3 3 6 6 3 3
0 0 3 3 6 6 6 6 6 13 13 13 13 16 16 16 16 6 3 0 0 6 10 6 0 0 0 0 0 0 0 0 0 0 3 3 0 0 3 3 3 3 6
0 0 0 0 3 3 3 3 10 10 10 10 13 13 13 13 13 13 10 0 0 0 0 3 0 0 0 0 0 0 0 0 0 0 0 0 0 0 0 3 3 3 3
0 0 0 0 0 0 3 3 6 6 6 6 6 6 6 10 10 10 10 13 10 10 3 3 3 0 0 0 0 0 0 0 0 0 0 0 0 0 0 0 3 6 6
0 0 0 0 0 0 3 6 6 3 3 3 6 6 6 6 6 3 0 0 0 3 3 6 3 3 0 3 3 0 0 0 0 0 0 0 0 0 0 3 3 3 3
0 0 0 0 0 3 3 6 6 0 0 0 0 3 3 0 0 0 0 0 0 0 6 6 6 6 6 3 3 0 0 0 0 0 0 0 0 0 3 3 0 0 0
0 0 3 3 3 3 3 3 6 6 6 3 0 0 0 0 0 0 0 0 0 3 3 6 6 3 3 3 6 3 0 0 0 0 0 0 0 0 0 0 0 0 0
3 3 3 3 3 3 3 3 3 6 6 3 0 0 0 0 0 0 0 0 3 3 3 3 3 3 3 3 6 6 0 0 0 0 0 0 0 0 0 0 0 0 0
3 3 3 3 3 3 3 3 3 3 6 6 3 3 0 0 0 0 0 0 0 3 3 3 3 3 3 3 6 6 6 6 3 3 3 0 0 0 0 0 0 0 0
3 3 3 3 3 3 3 3 3 3 3 3 3 0 0 0 0 0 0 0 0 0 3 3 3 3 3 6 6 6 3 3 3 3 3 3 0 0 0 0 0 0 0
3 3 3 3 3 3 3 3 3 3 3 3 0 0 0 0 0 0 0 0 3 3 0 0 0 0 3 3 3 3 3 3 3 3 3 3 0 0 0 0 0 0 0
3 3 3 3 3 0 0 0 0 0 0 0 0 0 0 0 0 0 0 0 0 0 0 0 0 0 0 0 0 0 0 0 0 0 0 0 0 0 0 0 0 0 0
6 6 3 0 0 0 0 0 0 0 0 0 0 0 0 0 0 0 0 0 0 0 0 0 0 0 0 0 0 0 0 0 0 0 0 0 0 0 0 0 0 0 0
3 3 3 3 3 0 0 0 0 0 0 0 0 0 0 0 0 0 0 0 0 0 0 0 0 0 0 0 0 0 0 0 0 0 0 0 0 0 0 0 0 0 0
3 3 3 0 0 0 0 0 0 0 0 0 0 0 0 0 0 0 0 0 0 0 0 0 0 0 0 0 0 0 0 0 0 0 0 0 0 0 0 0 0 0 0

GEFSGL_con_cape1000_342.txt.gz
Probability
39 35 35 32 32 39 42 42 42 35 32 32 39 39 35 35 35 35 32 35 32 32 29 32 32 39 23 29 29 26 29 26 26 23 16 16 26 19 16 29 29 29 13
35 35 35 42 42 39 32 29 29 29 32 35 32 35 32 32 32 32 29 32 32 29 32 32 29 32 35 35 32 23 26 32 23 26 23 16 23 23 23 29 19 13 19
35 35 39 35 42 35 35 29 29 32 29 29 29 29 32 32 32 32 32 32 32 32 32 32 32 32 35 32 29 19 23 16 26 23 23 23 19 26 23 23 19 19 10
42 42 45 42 42 45 45 35 35 32 29 29 29 29 29 29 29 29 29 32 32 32 32 32 29 29 29 29 29 29 32 32 32 23 23 19 16 16 23 23 19 19 16
45 42 39 39 35 42 45 45 45 35 32 29 29 29 29 29 19 29 29 26 29 32 29 29 29 29 26 26 19 26 32 32 26 19 13 16 16 19 16 19 19 23 26
42 39 35 39 39 39 42 42 39 39 39 32 32 26 26 13 13 13 16 29 29 26 26 29 29 26 16 6 6 6 10 29 23 26 16 26 26 23 26 19 16 23 26
35 26 32 26 29 26 26 32 35 35 35 35 32 32 29 23 13 10 6 19 26 26 26 29 26 23 23 29 13 0 0 0 3 29 26 29 29 23 23 23 26 23 26
26 13 19 23 23 29 29 32 35 35 35 35 35 35 29 23 13 6 6 23 19 23 23 23 26 26 23 23 26 32 29 32 13 13 29 29 29 29 23 23 23 26 26
26 23 16 19 23 26 29 29 35 35 35 35 32 29 29 23 16 6 0 23 23 23 23 23 19 23 23 10 19 32 29 29 13 3 3 10 6 6 10 16 19 23 16
26 26 19 19 19 29 26 32 35 35 32 29 29 29 29 26 19 6 0 19 23 23 23 23 16 16 19 10 19 23 26 26 23 16 10 3 3 6 0 10 16 19 13
19 23 16 19 23 26 29 29 32 29 29 26 29 29 26 23 23 10 3 19 23 23 19 19 19 16 6 6 6 23 19 19 23 23 19 13 19 19 19 16 19 13 13
19 16 16 16 16 13 26 26 26 23 23 26 32 23 19 23 23 16 3 3 13 23 23 23 16 10 3 3 3 6 3 3 19 16 19 19 16 16 13 10 10 16 16
16 16 19 19 19 23 23 19 19 19 19 13 16 10 10 13 6 3 3 3 3 3 16 13 10 0 0 0 0 0 0 6 6 13 16 23 23 19 16 16 16 23 16
16 19 19 16 19 23 19 6 10 16 16 13 13 13 10 10 6 10 6 3 3 3 6 6 3 0 0 0 0 3 6 10 10 10 13 19 23 19 16 13 10 10 6
26 16 16 10 6 13 13 10 6 16 10 10 6 6 6 10 6 6 6 6 6 6 3 6 13 13 13 13 16 16 16 10 6 10 13 16 13 10 10 10 10 6 6
19 16 10 6 6 6 3 6 3 3 3 3 3 3 6 3 3 3 3 3 6 3 3 6 13 13 13 13 13 13 13 13 16 16 10 16 10 10 10 10 10 6 6
19 19 13 6 6 6 3 3 6 3 3 3 3 3 3 0 0 0 0 0 0 0 3 3 6 10 13 13 13 13 16 13 16 10 13 10 10 10 10 6 6 10 6
19 13 10 16 6 3 3 3 3 3 3 3 0 0 0 0 0 0 0 0 3 3 3 3 6 6 10 10 10 13 10 13 13 10 6 6 10 10 10 10 10 10 6
19 16 13 6 6 3 3 3 3 3 3 3 0 0 0 0 0 0 0 3 3 3 3 6 0 3 3 6 6 6 6 10 3 6 6 10 10 10 10 10 10 6 3
26 10 3 10 6 6 3 3 3 3 3 3 10 3 0 0 6 3 3 3 3 0 0 0 0 3 3 3 3 6 6 6 6 6 6 10 10 10 10 10 10 6 6
19 10 3 10 10 10 10 6 6 6 6 6 6 0 3 3 0 3 0 0 0 0 0 3 3 0 3 3 3 3 3 3 6 10 10 10 10 10 10 10 10 10 10
13 10 10 6 10 10 10 10 6 6 3 3 3 0 0 0 3 6 3 3 0 0 3 3 0 0 0 0 0 0 3 3 3 6 13 10 10 10 6 6 6 6 6
16 13 6 6 10 6 10 10 3 3 3 3 3 0 0 3 3 3 3 3 6 6 6 0 0 0 0 0 0 0 0 0 0 0 0 0 3 0 3 3 3 3 3
10 6 10 6 6 3 3 3 3 3 3 3 3 3 3 3 3 3 6 3 3 3 0 3 0 0 0 0 0 0 0 0 0 0 0 0 0 0 3 3 3 3 3
10 3 6 6 3 3 3 3 3 3 3 3 0 0 0 3 3 0 3 3 3 3 0 0 0 0 0 0 0 0 0 0 0 0 0 0 0 0 0 0 3 0 0
6 6 10 6 3 3 3 3 3 3 3 0 0 0 0 0 0 0 0 3 3 3 0 0 0 0 0 0 0 0 0 0 0 0 0 0 0 0 0 0 0 0 0